RYR84KM EGGW-LEMI

Flight info

Callsign RYR84KM
Flight time 2h 28m
Altitude 39000
Route RODNI N27 ICTAM Q63 CPT UN859 SOPIL DCT BALAN DCT LMG DCT PIMQO DCT AGN DCT ANETO N860 VLC L34 ALT
Aircraft B738/M-SDE2E3FGHIRWXY/LB1

Departure

Time 2026-04-25 19:29
Airport London Luton Airport (EGGW)

Arrival

Time 2026-04-25 21:57
Airport Region of Murcia International Airport (LEMI)
Time Latitude Longitude Altitude Speed Heading
2026-04-25 19:12 51.87954 -0.38121 522 ft 0 kts 307°
2026-04-25 19:18 51.87946 -0.38103 522 ft 4 kts 307°
2026-04-25 19:19 51.87930 -0.38070 522 ft 4 kts 303°
2026-04-25 19:19 51.87923 -0.38035 522 ft 4 kts 244°
2026-04-25 19:19 51.87939 -0.38011 522 ft 2 kts 198°
2026-04-25 19:19 51.87951 -0.38005 522 ft 4 kts 208°
2026-04-25 19:20 51.87961 -0.37997 522 ft 0 kts 207°
2026-04-25 19:22 51.87959 -0.37998 522 ft 2 kts 206°
2026-04-25 19:22 51.87888 -0.38013 522 ft 8 kts 171°
2026-04-25 19:23 51.87833 -0.37973 522 ft 10 kts 144°
2026-04-25 19:23 51.87756 -0.37764 522 ft 12 kts 115°
2026-04-25 19:23 51.87714 -0.37618 517 ft 17 kts 115°
2026-04-25 19:24 51.87645 -0.37476 521 ft 16 kts 152°
2026-04-25 19:24 51.87540 -0.37473 520 ft 13 kts 201°
2026-04-25 19:24 51.87473 -0.37713 522 ft 11 kts 254°
2026-04-25 19:25 51.87433 -0.37945 522 ft 10 kts 254°
2026-04-25 19:25 51.87400 -0.38035 523 ft 9 kts 223°
2026-04-25 19:25 51.87368 -0.38066 522 ft 0 kts 206°
2026-04-25 19:26 51.87363 -0.38070 522 ft 4 kts 206°
2026-04-25 19:26 51.87321 -0.38103 521 ft 9 kts 204°
2026-04-25 19:26 51.87258 -0.38121 522 ft 9 kts 205°
2026-04-25 19:27 51.87225 -0.38215 522 ft 11 kts 242°
2026-04-25 19:27 51.87191 -0.38282 520 ft 9 kts 243°
2026-04-25 19:27 51.87210 -0.38292 520 ft 3 kts 64°
2026-04-25 19:27 51.87211 -0.38286 520 ft 0 kts 72°
2026-04-25 19:28 51.87217 -0.38254 521 ft 18 kts 72°
2026-04-25 19:28 51.87322 -0.37657 520 ft 92 kts 74°
2026-04-25 19:28 51.87554 -0.36318 521 ft 153 kts 74°
2026-04-25 19:29 51.87865 -0.34520 1032 ft 166 kts 74°
2026-04-25 19:29 51.88190 -0.32692 1799 ft 174 kts 73°
2026-04-25 19:29 51.88552 -0.30680 2255 ft 202 kts 74°
2026-04-25 19:29 51.88965 -0.28354 2527 ft 227 kts 73°
2026-04-25 19:30 51.89274 -0.25785 2946 ft 243 kts 93°
2026-04-25 19:30 51.88583 -0.23239 3416 ft 260 kts 135°
2026-04-25 19:30 51.87008 -0.21825 3926 ft 266 kts 168°
2026-04-25 19:30 51.85187 -0.22055 3987 ft 268 kts 203°
2026-04-25 19:31 51.83771 -0.23961 3999 ft 269 kts 239°
2026-04-25 19:31 51.83279 -0.26824 4015 ft 268 kts 269°
2026-04-25 19:31 51.83254 -0.29854 4007 ft 272 kts 267°
2026-04-25 19:31 51.83042 -0.32894 4011 ft 273 kts 261°
2026-04-25 19:32 51.82663 -0.35897 3992 ft 271 kts 257°
2026-04-25 19:32 51.82204 -0.38841 3990 ft 269 kts 255°
2026-04-25 19:32 51.81717 -0.41740 4001 ft 266 kts 255°
2026-04-25 19:32 51.81558 -0.42678 4011 ft 267 kts 255°
2026-04-25 19:33 51.80769 -0.47639 4836 ft 276 kts 256°
2026-04-25 19:33 51.80319 -0.50638 5510 ft 274 kts 257°
2026-04-25 19:33 51.79869 -0.53624 6499 ft 273 kts 257°
2026-04-25 19:33 51.79405 -0.56652 6970 ft 283 kts 256°
2026-04-25 19:34 51.78916 -0.59671 6954 ft 281 kts 256°
2026-04-25 19:34 51.78411 -0.62758 6611 ft 288 kts 256°
2026-04-25 19:34 51.77837 -0.65826 6519 ft 277 kts 246°
2026-04-25 19:34 51.76829 -0.68331 6861 ft 259 kts 232°
2026-04-25 19:35 51.75661 -0.70645 6986 ft 274 kts 231°
2026-04-25 19:35 51.74433 -0.73023 6992 ft 278 kts 231°
2026-04-25 19:35 51.73188 -0.75422 7001 ft 279 kts 231°
2026-04-25 19:35 51.71938 -0.77823 7010 ft 280 kts 231°
2026-04-25 19:36 51.70679 -0.80235 7089 ft 273 kts 231°
2026-04-25 19:36 51.69451 -0.82583 7180 ft 276 kts 231°
2026-04-25 19:36 51.68204 -0.84965 7204 ft 281 kts 231°
2026-04-25 19:36 51.66958 -0.87340 7205 ft 280 kts 231°
2026-04-25 19:37 51.65706 -0.89731 7193 ft 279 kts 231°
2026-04-25 19:37 51.64457 -0.92119 7204 ft 278 kts 231°
2026-04-25 19:37 51.63216 -0.94487 7210 ft 276 kts 231°
2026-04-25 19:37 51.61982 -0.96843 7201 ft 276 kts 230°
2026-04-25 19:38 51.60738 -0.99219 7204 ft 279 kts 230°
2026-04-25 19:38 51.59487 -1.01617 7214 ft 280 kts 230°
2026-04-25 19:38 51.58240 -1.04012 7225 ft 278 kts 230°
2026-04-25 19:38 51.57000 -1.06394 7202 ft 278 kts 230°
2026-04-25 19:39 51.55769 -1.08796 7202 ft 278 kts 234°
2026-04-25 19:39 51.54595 -1.11312 7198 ft 288 kts 232°
2026-04-25 19:39 51.53275 -1.13807 7918 ft 288 kts 227°
2026-04-25 19:39 51.51972 -1.15939 9714 ft 250 kts 227°
2026-04-25 19:40 51.50825 -1.17962 10775 ft 243 kts 230°
2026-04-25 19:40 51.49676 -1.20080 11139 ft 264 kts 230°
2026-04-25 19:40 51.48423 -1.22410 11351 ft 288 kts 230°
2026-04-25 19:40 51.47059 -1.24956 11557 ft 313 kts 230°
2026-04-25 19:41 51.45590 -1.27706 11772 ft 335 kts 230°
2026-04-25 19:41 51.43987 -1.30484 12339 ft 345 kts 220°
2026-04-25 19:41 51.41872 -1.32359 13094 ft 351 kts 198°
2026-04-25 19:41 51.41073 -1.32687 13381 ft 353 kts 191°
2026-04-25 19:42 51.36957 -1.32083 13837 ft 368 kts 159°
2026-04-25 19:42 51.34668 -1.30301 13819 ft 364 kts 152°
2026-04-25 19:42 51.32467 -1.28338 13811 ft 360 kts 151°
2026-04-25 19:42 51.30285 -1.26349 13870 ft 365 kts 150°
2026-04-25 19:43 51.28066 -1.24318 14485 ft 369 kts 150°
2026-04-25 19:43 51.25845 -1.22273 15255 ft 369 kts 150°
2026-04-25 19:43 51.23611 -1.20206 15939 ft 373 kts 151°
2026-04-25 19:43 51.21354 -1.18107 16566 ft 378 kts 150°
2026-04-25 19:44 51.19074 -1.15975 17199 ft 383 kts 150°
2026-04-25 19:44 51.16769 -1.13808 17841 ft 387 kts 150°
2026-04-25 19:44 51.14443 -1.11616 18469 ft 391 kts 150°
2026-04-25 19:44 51.12089 -1.09391 19015 ft 395 kts 150°
2026-04-25 19:45 51.09715 -1.07146 19571 ft 399 kts 150°
2026-04-25 19:45 51.07343 -1.04825 20126 ft 402 kts 148°
2026-04-25 19:45 51.05023 -1.02299 20668 ft 406 kts 146°
2026-04-25 19:45 51.02710 -0.99678 21202 ft 410 kts 145°
2026-04-25 19:46 51.00383 -0.97029 21733 ft 413 kts 145°
2026-04-25 19:46 50.98031 -0.94373 22259 ft 417 kts 146°
2026-04-25 19:46 50.95643 -0.91707 22726 ft 422 kts 146°
2026-04-25 19:46 50.93219 -0.89028 23200 ft 426 kts 146°
2026-04-25 19:47 50.90772 -0.86341 23712 ft 430 kts 146°
2026-04-25 19:47 50.88305 -0.83645 24145 ft 433 kts 146°
2026-04-25 19:47 50.85818 -0.80936 24571 ft 435 kts 146°
2026-04-25 19:47 50.83318 -0.78217 24981 ft 438 kts 146°
2026-04-25 19:48 50.80800 -0.75483 25374 ft 440 kts 146°
2026-04-25 19:48 50.78268 -0.72736 25769 ft 443 kts 147°
2026-04-25 19:48 50.75750 -0.70008 26151 ft 446 kts 147°
2026-04-25 19:48 50.73184 -0.67232 26516 ft 449 kts 147°
2026-04-25 19:49 50.70601 -0.64439 26906 ft 451 kts 147°
2026-04-25 19:49 50.69726 -0.63495 27030 ft 452 kts 147°
2026-04-25 19:49 50.65388 -0.58818 27635 ft 457 kts 147°
2026-04-25 19:49 50.62756 -0.55985 27988 ft 459 kts 147°
2026-04-25 19:50 50.57423 -0.50258 28223 ft 469 kts 147°
2026-04-25 19:50 50.55606 -0.48310 28231 ft 467 kts 147°
2026-04-25 19:51 50.50322 -0.42651 28225 ft 460 kts 147°
2026-04-25 19:51 50.45012 -0.36984 28236 ft 463 kts 147°
2026-04-25 19:52 50.39670 -0.31300 28217 ft 465 kts 147°
2026-04-25 19:52 50.34312 -0.25613 28231 ft 466 kts 147°
2026-04-25 19:53 50.28930 -0.19917 28495 ft 470 kts 147°
2026-04-25 19:53 50.26223 -0.17057 28943 ft 469 kts 147°
2026-04-25 19:53 50.23516 -0.14201 29341 ft 470 kts 147°
2026-04-25 19:53 50.20795 -0.11336 29642 ft 473 kts 147°
2026-04-25 19:54 50.18054 -0.08452 29895 ft 477 kts 147°
2026-04-25 19:54 50.15291 -0.05548 30126 ft 481 kts 147°
2026-04-25 19:54 50.12505 -0.02639 30403 ft 483 kts 149°
2026-04-25 19:54 50.10584 -0.00908 30603 ft 482 kts 155°
2026-04-25 19:55 50.06484 0.01703 31341 ft 471 kts 165°
2026-04-25 19:55 50.03341 0.03077 31787 ft 468 kts 167°
2026-04-25 19:55 50.00192 0.04352 32086 ft 468 kts 168°
2026-04-25 19:55 49.97034 0.05599 32358 ft 469 kts 168°
2026-04-25 19:56 49.93877 0.06847 32680 ft 468 kts 167°
2026-04-25 19:56 49.90734 0.08104 33080 ft 465 kts 167°
2026-04-25 19:56 49.87614 0.09367 33473 ft 463 kts 167°
2026-04-25 19:56 49.84505 0.10636 33817 ft 461 kts 167°
2026-04-25 19:57 49.81403 0.11907 34148 ft 461 kts 167°
2026-04-25 19:57 49.78311 0.13176 34437 ft 459 kts 167°
2026-04-25 19:57 49.75228 0.14441 34706 ft 458 kts 167°
2026-04-25 19:57 49.72145 0.15703 34919 ft 458 kts 167°
2026-04-25 19:58 49.69098 0.16948 35145 ft 459 kts 167°
2026-04-25 19:58 49.66015 0.18206 35438 ft 457 kts 167°
2026-04-25 19:58 49.62944 0.19460 35716 ft 456 kts 167°
2026-04-25 19:58 49.59873 0.20710 35954 ft 456 kts 167°
2026-04-25 19:59 49.56805 0.21957 36164 ft 456 kts 167°
2026-04-25 19:59 49.53737 0.23203 36394 ft 456 kts 167°
2026-04-25 19:59 49.50675 0.24445 36636 ft 454 kts 167°
2026-04-25 19:59 49.47625 0.25679 36905 ft 453 kts 167°
2026-04-25 20:00 49.44579 0.26911 37109 ft 453 kts 167°
2026-04-25 20:00 49.42563 0.27725 37215 ft 453 kts 167°
2026-04-25 20:00 49.38479 0.29372 37476 ft 453 kts 167°
2026-04-25 20:00 49.35431 0.30600 37706 ft 452 kts 167°
2026-04-25 20:01 49.29354 0.33044 38110 ft 451 kts 167°
2026-04-25 20:01 49.26321 0.34262 38337 ft 450 kts 167°
2026-04-25 20:01 49.23293 0.35475 38527 ft 450 kts 167°
2026-04-25 20:02 49.20267 0.36687 38683 ft 450 kts 167°
2026-04-25 20:02 49.17237 0.37897 38847 ft 450 kts 167°
2026-04-25 20:02 49.14213 0.39104 38992 ft 449 kts 167°
2026-04-25 20:02 49.11189 0.40310 39115 ft 449 kts 167°
2026-04-25 20:03 49.05122 0.42723 39191 ft 451 kts 167°
2026-04-25 20:03 48.99055 0.45132 39189 ft 450 kts 167°
2026-04-25 20:04 48.93011 0.47527 39195 ft 448 kts 167°
2026-04-25 20:04 48.87021 0.49894 39195 ft 447 kts 167°
2026-04-25 20:05 48.80993 0.52269 39191 ft 447 kts 167°
2026-04-25 20:05 48.74979 0.54633 39191 ft 446 kts 167°
2026-04-25 20:06 48.68968 0.56991 39189 ft 446 kts 167°
2026-04-25 20:06 48.62954 0.59343 39177 ft 447 kts 167°
2026-04-25 20:07 48.56935 0.61692 39187 ft 447 kts 167°
2026-04-25 20:07 48.50911 0.64042 39183 ft 447 kts 167°
2026-04-25 20:08 48.44890 0.66487 39173 ft 449 kts 167°
2026-04-25 20:08 48.38859 0.68955 39172 ft 450 kts 167°
2026-04-25 20:09 48.32813 0.71411 39172 ft 450 kts 167°
2026-04-25 20:09 48.26756 0.73857 39164 ft 451 kts 167°
2026-04-25 20:10 48.20684 0.76280 39163 ft 452 kts 167°
2026-04-25 20:10 48.14591 0.78669 39164 ft 453 kts 167°
2026-04-25 20:11 48.08494 0.81056 39165 ft 453 kts 167°
2026-04-25 20:11 48.02389 0.83445 39158 ft 454 kts 167°
2026-04-25 20:12 47.96287 0.85828 39150 ft 453 kts 167°
2026-04-25 20:12 47.92210 0.87419 39155 ft 452 kts 167°
2026-04-25 20:13 47.84101 0.90574 39153 ft 452 kts 167°
2026-04-25 20:13 47.78027 0.92930 39151 ft 450 kts 167°
2026-04-25 20:14 47.71974 0.95270 39154 ft 449 kts 167°
2026-04-25 20:14 47.65937 0.97600 39154 ft 448 kts 167°
2026-04-25 20:15 47.59916 0.99917 39143 ft 446 kts 167°
2026-04-25 20:15 47.53916 1.02223 39154 ft 445 kts 167°
2026-04-25 20:16 47.47935 1.04515 39150 ft 444 kts 167°
2026-04-25 20:16 47.41919 1.06452 39144 ft 441 kts 178°
2026-04-25 20:17 47.35803 1.06417 39148 ft 439 kts 184°
2026-04-25 20:17 47.29691 1.06168 39161 ft 440 kts 183°
2026-04-25 20:18 47.23556 1.05987 39143 ft 441 kts 183°
2026-04-25 20:18 47.17406 1.05841 39153 ft 443 kts 183°
2026-04-25 20:19 47.11277 1.05702 39155 ft 444 kts 183°
2026-04-25 20:19 47.05094 1.05428 39147 ft 445 kts 186°
2026-04-25 20:20 46.98920 1.04657 39149 ft 446 kts 187°
2026-04-25 20:20 46.92739 1.03805 39144 ft 447 kts 187°
2026-04-25 20:21 46.86548 1.03000 39152 ft 447 kts 187°
2026-04-25 20:21 46.80347 1.02236 39158 ft 447 kts 187°
2026-04-25 20:22 46.76194 1.01732 39152 ft 448 kts 187°
2026-04-25 20:22 46.67941 1.00738 39144 ft 447 kts 187°
2026-04-25 20:23 46.61750 0.99992 39152 ft 445 kts 187°
2026-04-25 20:23 46.55583 0.99252 39144 ft 445 kts 187°
2026-04-25 20:24 46.49461 0.98514 39150 ft 444 kts 187°
2026-04-25 20:24 46.43313 0.97777 39157 ft 443 kts 187°
2026-04-25 20:25 46.37171 0.97042 39158 ft 443 kts 187°
2026-04-25 20:25 46.31040 0.96310 39152 ft 442 kts 187°
2026-04-25 20:26 46.24920 0.95582 39160 ft 441 kts 187°
2026-04-25 20:26 46.18798 0.94856 39164 ft 441 kts 187°
2026-04-25 20:27 46.12682 0.94133 39162 ft 441 kts 187°
2026-04-25 20:27 46.06570 0.93410 39170 ft 441 kts 187°
2026-04-25 20:28 46.00454 0.92688 39168 ft 441 kts 187°
2026-04-25 20:28 45.94327 0.91968 39159 ft 442 kts 187°
2026-04-25 20:29 45.88197 0.91249 39170 ft 441 kts 187°
2026-04-25 20:29 45.82066 0.90529 39175 ft 443 kts 187°
2026-04-25 20:30 45.75931 0.89808 39170 ft 443 kts 187°
2026-04-25 20:30 45.69787 0.89094 39176 ft 443 kts 187°
2026-04-25 20:31 45.63640 0.88381 39174 ft 444 kts 187°
2026-04-25 20:31 45.57483 0.87665 39170 ft 444 kts 187°
2026-04-25 20:32 45.51316 0.86950 39164 ft 445 kts 187°
2026-04-25 20:32 45.45154 0.86239 39176 ft 444 kts 187°
2026-04-25 20:33 45.38994 0.85527 39173 ft 444 kts 187°
2026-04-25 20:33 45.34877 0.85051 39181 ft 444 kts 187°
2026-04-25 20:34 45.26692 0.84111 39191 ft 443 kts 187°
2026-04-25 20:34 45.20542 0.83408 39179 ft 443 kts 187°
2026-04-25 20:35 45.14415 0.82707 39178 ft 441 kts 187°
2026-04-25 20:35 45.08306 0.82012 39177 ft 440 kts 187°
2026-04-25 20:36 45.02215 0.81317 39182 ft 439 kts 187°
2026-04-25 20:36 44.96133 0.80625 39187 ft 439 kts 187°
2026-04-25 20:37 44.90052 0.79935 39182 ft 438 kts 187°
2026-04-25 20:37 44.84016 0.79252 39184 ft 438 kts 187°
2026-04-25 20:38 44.77943 0.78566 39185 ft 438 kts 187°
2026-04-25 20:38 44.71863 0.77881 39186 ft 438 kts 187°
2026-04-25 20:39 44.66809 0.77313 39187 ft 438 kts 187°
2026-04-25 20:39 44.61710 0.76741 39183 ft 439 kts 187°
2026-04-25 20:40 44.54628 0.75949 39171 ft 439 kts 187°
2026-04-25 20:40 44.48531 0.75267 39180 ft 440 kts 187°
2026-04-25 20:41 44.42429 0.74585 39183 ft 440 kts 187°
2026-04-25 20:41 44.36324 0.73905 39182 ft 440 kts 187°
2026-04-25 20:42 44.30222 0.73228 39179 ft 440 kts 187°
2026-04-25 20:42 44.24114 0.72551 39183 ft 441 kts 187°
2026-04-25 20:43 44.18005 0.71876 39192 ft 440 kts 187°
2026-04-25 20:43 44.11906 0.71204 39180 ft 439 kts 187°
2026-04-25 20:44 44.05824 0.70534 39179 ft 437 kts 187°
2026-04-25 20:44 43.99765 0.69868 39182 ft 436 kts 187°
2026-04-25 20:45 43.93724 0.69206 39181 ft 435 kts 187°
2026-04-25 20:45 43.87697 0.68546 39182 ft 434 kts 187°
2026-04-25 20:46 43.81679 0.67889 39177 ft 433 kts 187°
2026-04-25 20:46 43.75724 0.67239 39179 ft 432 kts 187°
2026-04-25 20:47 43.69744 0.66588 39186 ft 430 kts 187°
2026-04-25 20:47 43.63777 0.65938 39181 ft 430 kts 187°
2026-04-25 20:48 43.57831 0.65293 39188 ft 428 kts 187°
2026-04-25 20:48 43.51896 0.64653 39190 ft 428 kts 187°
2026-04-25 20:49 43.45963 0.64013 39187 ft 428 kts 188°
2026-04-25 20:49 43.40027 0.63371 39191 ft 428 kts 187°
2026-04-25 20:50 43.34083 0.62731 39197 ft 429 kts 187°
2026-04-25 20:50 43.28122 0.62092 39190 ft 430 kts 187°
2026-04-25 20:51 43.22141 0.61451 39190 ft 432 kts 187°
2026-04-25 20:51 43.16141 0.60811 39200 ft 433 kts 187°
2026-04-25 20:52 43.11141 0.60277 39196 ft 434 kts 187°
2026-04-25 20:52 43.04087 0.59525 39201 ft 436 kts 187°
2026-04-25 20:53 42.98036 0.58881 39200 ft 436 kts 186°
2026-04-25 20:53 42.91996 0.58241 39189 ft 435 kts 186°
2026-04-25 20:54 42.85978 0.57605 39190 ft 433 kts 186°
2026-04-25 20:54 42.80003 0.56973 39198 ft 429 kts 186°
2026-04-25 20:55 42.74061 0.56347 39193 ft 427 kts 186°
2026-04-25 20:55 42.68155 0.55660 39188 ft 425 kts 190°
2026-04-25 20:56 42.62356 0.54223 39185 ft 423 kts 193°
2026-04-25 20:56 42.56588 0.52616 39177 ft 423 kts 193°
2026-04-25 20:57 42.50803 0.51091 39180 ft 424 kts 192°
2026-04-25 20:57 42.45046 0.49617 39171 ft 424 kts 192°
2026-04-25 20:58 42.39198 0.48126 39162 ft 425 kts 192°
2026-04-25 20:58 42.33422 0.46652 39163 ft 426 kts 192°
2026-04-25 20:59 42.27598 0.45168 39144 ft 426 kts 192°
2026-04-25 20:59 42.21773 0.43688 39148 ft 426 kts 192°
2026-04-25 21:00 42.17865 0.42696 39133 ft 427 kts 192°
2026-04-25 21:01 42.07144 0.39979 39131 ft 429 kts 192°
2026-04-25 21:01 42.01276 0.38498 39127 ft 429 kts 192°
2026-04-25 21:02 41.95400 0.37015 39121 ft 430 kts 191°
2026-04-25 21:02 41.89520 0.35537 39127 ft 430 kts 191°
2026-04-25 21:03 41.83629 0.34058 39132 ft 431 kts 191°
2026-04-25 21:03 41.77724 0.32577 39127 ft 432 kts 191°
2026-04-25 21:04 41.71817 0.31099 39125 ft 432 kts 191°
2026-04-25 21:04 41.65908 0.29625 39124 ft 431 kts 191°
2026-04-25 21:05 41.60004 0.28155 39120 ft 432 kts 191°
2026-04-25 21:05 41.54102 0.26686 39109 ft 431 kts 191°
2026-04-25 21:06 41.48204 0.25221 39104 ft 431 kts 191°
2026-04-25 21:06 41.42309 0.23760 39109 ft 431 kts 191°
2026-04-25 21:07 41.36408 0.22300 39099 ft 431 kts 191°
2026-04-25 21:07 41.30511 0.20843 39105 ft 431 kts 191°
2026-04-25 21:08 41.24604 0.19391 39111 ft 433 kts 191°
2026-04-25 21:08 41.18685 0.17933 39115 ft 433 kts 191°
2026-04-25 21:09 41.09841 0.15436 39118 ft 433 kts 198°
2026-04-25 21:09 41.04128 0.13046 39114 ft 434 kts 198°
2026-04-25 21:10 40.98365 0.10642 39124 ft 435 kts 198°
2026-04-25 21:10 40.92570 0.08300 39126 ft 436 kts 198°
2026-04-25 21:11 40.86762 0.05968 39125 ft 437 kts 197°
2026-04-25 21:11 40.80948 0.03641 39136 ft 437 kts 197°
2026-04-25 21:12 40.75127 0.01313 39130 ft 437 kts 197°
2026-04-25 21:12 40.70245 -0.00637 39139 ft 437 kts 197°
2026-04-25 21:13 40.63474 -0.03339 39142 ft 437 kts 197°
2026-04-25 21:13 40.57650 -0.05656 39149 ft 438 kts 197°
2026-04-25 21:14 40.51826 -0.07968 39149 ft 437 kts 197°
2026-04-25 21:14 40.45999 -0.10277 39152 ft 437 kts 197°
2026-04-25 21:15 40.40170 -0.12586 39158 ft 438 kts 197°
2026-04-25 21:15 40.34332 -0.14893 39159 ft 438 kts 197°
2026-04-25 21:16 40.28486 -0.17198 39157 ft 439 kts 197°
2026-04-25 21:16 40.22630 -0.19504 39162 ft 440 kts 196°
2026-04-25 21:17 40.16764 -0.21809 39153 ft 440 kts 196°
2026-04-25 21:17 40.10889 -0.24111 39151 ft 441 kts 196°
2026-04-25 21:18 40.05009 -0.26416 39136 ft 441 kts 196°
2026-04-25 21:18 39.99130 -0.28714 39140 ft 441 kts 197°
2026-04-25 21:19 39.93294 -0.30988 39136 ft 440 kts 197°
2026-04-25 21:19 39.87425 -0.33272 39145 ft 440 kts 197°
2026-04-25 21:20 39.83499 -0.34797 39142 ft 440 kts 197°
2026-04-25 21:20 39.75707 -0.37821 39153 ft 439 kts 197°
2026-04-25 21:21 39.69861 -0.40086 39158 ft 438 kts 197°
2026-04-25 21:21 39.64020 -0.42345 39156 ft 438 kts 197°
2026-04-25 21:22 39.58176 -0.44602 39046 ft 440 kts 197°
2026-04-25 21:22 39.55218 -0.45743 38519 ft 445 kts 197°
2026-04-25 21:22 39.52261 -0.46882 37983 ft 442 kts 197°
2026-04-25 21:23 39.49338 -0.47978 37633 ft 435 kts 194°
2026-04-25 21:23 39.46367 -0.48611 37190 ft 431 kts 184°
2026-04-25 21:23 39.43397 -0.48827 36843 ft 425 kts 182°
2026-04-25 21:23 39.40454 -0.49003 36435 ft 421 kts 182°
2026-04-25 21:24 39.37536 -0.49174 36061 ft 417 kts 182°
2026-04-25 21:24 39.34651 -0.49351 35653 ft 414 kts 182°
2026-04-25 21:24 39.31784 -0.49537 35271 ft 411 kts 182°
2026-04-25 21:24 39.28940 -0.49732 34893 ft 408 kts 182°
2026-04-25 21:25 39.26116 -0.49932 34519 ft 405 kts 182°
2026-04-25 21:25 39.23310 -0.50132 34146 ft 403 kts 182°
2026-04-25 21:25 39.21459 -0.50266 33867 ft 401 kts 182°
2026-04-25 21:25 39.18683 -0.50465 33459 ft 399 kts 182°
2026-04-25 21:26 39.15925 -0.50665 33075 ft 395 kts 182°
2026-04-25 21:26 39.13186 -0.50863 32703 ft 392 kts 182°
2026-04-25 21:26 39.10471 -0.51060 32343 ft 389 kts 181°
2026-04-25 21:26 39.06910 -0.51316 31873 ft 385 kts 181°
2026-04-25 21:27 39.05105 -0.51444 31632 ft 384 kts 181°
2026-04-25 21:27 39.01592 -0.51698 31171 ft 380 kts 181°
2026-04-25 21:27 38.99808 -0.51826 30935 ft 379 kts 181°
2026-04-25 21:27 38.97182 -0.52015 30591 ft 377 kts 181°
2026-04-25 21:28 38.94571 -0.52203 30247 ft 375 kts 181°
2026-04-25 21:28 38.91974 -0.52389 29855 ft 373 kts 181°
2026-04-25 21:28 38.89395 -0.52574 29470 ft 370 kts 181°
2026-04-25 21:28 38.86869 -0.52754 29132 ft 366 kts 181°
2026-04-25 21:29 38.84334 -0.52936 28759 ft 363 kts 181°
2026-04-25 21:29 38.81819 -0.53114 28417 ft 362 kts 181°
2026-04-25 21:29 38.79316 -0.53290 28048 ft 359 kts 181°
2026-04-25 21:29 38.76833 -0.53468 27696 ft 356 kts 181°
2026-04-25 21:30 38.74369 -0.53645 27351 ft 353 kts 181°
2026-04-25 21:30 38.71922 -0.53820 27006 ft 351 kts 181°
2026-04-25 21:30 38.69494 -0.53993 26675 ft 349 kts 181°
2026-04-25 21:30 38.67892 -0.54107 26441 ft 347 kts 181°
2026-04-25 21:31 38.64685 -0.54336 26002 ft 344 kts 180°
2026-04-25 21:31 38.62301 -0.54505 25661 ft 342 kts 180°
2026-04-25 21:31 38.59928 -0.54673 25327 ft 341 kts 180°
2026-04-25 21:31 38.57563 -0.54841 24995 ft 340 kts 180°
2026-04-25 21:32 38.55203 -0.55008 24665 ft 339 kts 180°
2026-04-25 21:32 38.52851 -0.55173 24327 ft 338 kts 180°
2026-04-25 21:32 38.50505 -0.55339 23997 ft 338 kts 180°
2026-04-25 21:32 38.48160 -0.55505 23640 ft 337 kts 180°
2026-04-25 21:33 38.45822 -0.55671 23260 ft 336 kts 180°
2026-04-25 21:33 38.43497 -0.55836 22904 ft 334 kts 180°
2026-04-25 21:33 38.41215 -0.55997 22571 ft 332 kts 180°
2026-04-25 21:33 38.38886 -0.56162 22229 ft 330 kts 180°
2026-04-25 21:34 38.36634 -0.56321 21906 ft 328 kts 180°
2026-04-25 21:34 38.34365 -0.56481 21585 ft 326 kts 180°
2026-04-25 21:34 38.32079 -0.56642 21256 ft 323 kts 180°
2026-04-25 21:34 38.29868 -0.56797 20943 ft 322 kts 180°
2026-04-25 21:35 38.27640 -0.56954 20625 ft 320 kts 180°
2026-04-25 21:35 38.25416 -0.57028 20258 ft 319 kts 176°
2026-04-25 21:35 38.23199 -0.56931 19919 ft 318 kts 174°
2026-04-25 21:35 38.20991 -0.56799 19593 ft 317 kts 174°
2026-04-25 21:36 38.18792 -0.56673 19282 ft 316 kts 174°
2026-04-25 21:36 38.16599 -0.56563 18961 ft 315 kts 174°
2026-04-25 21:36 38.14407 -0.56463 18642 ft 315 kts 175°
2026-04-25 21:36 38.12221 -0.56366 18297 ft 315 kts 175°
2026-04-25 21:37 38.10034 -0.56279 17935 ft 314 kts 175°
2026-04-25 21:37 38.08563 -0.56230 17708 ft 312 kts 175°
2026-04-25 21:37 38.05695 -0.56140 17274 ft 310 kts 175°
2026-04-25 21:37 38.03542 -0.56072 17005 ft 309 kts 175°
2026-04-25 21:38 38.01391 -0.56003 16753 ft 309 kts 175°
2026-04-25 21:38 37.99236 -0.55932 16504 ft 310 kts 175°
2026-04-25 21:38 37.97082 -0.55861 16253 ft 310 kts 175°
2026-04-25 21:38 37.94927 -0.55791 16011 ft 309 kts 175°
2026-04-25 21:39 37.92776 -0.55721 15765 ft 309 kts 176°
2026-04-25 21:39 37.90645 -0.56076 15483 ft 315 kts 199°
2026-04-25 21:39 37.88776 -0.57529 15270 ft 318 kts 220°
2026-04-25 21:39 37.87183 -0.59476 15046 ft 319 kts 223°
2026-04-25 21:40 37.85630 -0.61477 14802 ft 319 kts 224°
2026-04-25 21:40 37.84084 -0.63487 14567 ft 319 kts 224°
2026-04-25 21:40 37.82535 -0.65494 14328 ft 319 kts 224°
2026-04-25 21:40 37.80983 -0.67493 14102 ft 319 kts 223°
2026-04-25 21:41 37.79430 -0.69483 13854 ft 316 kts 223°
2026-04-25 21:41 37.77896 -0.71442 13582 ft 312 kts 223°
2026-04-25 21:41 37.76377 -0.73377 13314 ft 308 kts 223°
2026-04-25 21:41 37.74870 -0.75292 13050 ft 306 kts 223°
2026-04-25 21:42 37.73372 -0.77194 12804 ft 304 kts 222°
2026-04-25 21:42 37.71879 -0.79084 12542 ft 303 kts 222°
2026-04-25 21:42 37.70395 -0.80965 12303 ft 301 kts 223°
2026-04-25 21:42 37.68920 -0.82831 12050 ft 299 kts 223°
2026-04-25 21:43 37.67451 -0.84683 11798 ft 297 kts 223°
2026-04-25 21:43 37.65994 -0.86523 11547 ft 295 kts 223°
2026-04-25 21:43 37.64565 -0.88330 11296 ft 294 kts 223°
2026-04-25 21:43 37.63107 -0.90176 11054 ft 292 kts 223°
2026-04-25 21:44 37.61675 -0.91985 10818 ft 291 kts 223°
2026-04-25 21:44 37.60250 -0.93780 10636 ft 286 kts 223°
2026-04-25 21:44 37.57463 -0.97290 10222 ft 278 kts 223°
2026-04-25 21:45 37.56107 -0.98998 9996 ft 275 kts 223°
2026-04-25 21:45 37.55210 -1.00125 9804 ft 275 kts 223°
2026-04-25 21:45 37.53422 -1.02374 9438 ft 274 kts 223°
2026-04-25 21:45 37.52069 -1.04074 9165 ft 275 kts 223°
2026-04-25 21:46 37.50714 -1.05773 8857 ft 275 kts 223°
2026-04-25 21:46 37.49376 -1.07493 8584 ft 275 kts 229°
2026-04-25 21:46 37.48570 -1.09652 8313 ft 276 kts 261°
2026-04-25 21:46 37.48664 -1.12038 8067 ft 273 kts 281°
2026-04-25 21:47 37.49019 -1.14391 7766 ft 273 kts 281°
2026-04-25 21:47 37.49424 -1.16723 7498 ft 272 kts 284°
2026-04-25 21:47 37.49885 -1.19011 7273 ft 266 kts 287°
2026-04-25 21:47 37.50459 -1.21187 7000 ft 257 kts 292°
2026-04-25 21:48 37.51119 -1.23258 6722 ft 252 kts 294°
2026-04-25 21:48 37.51806 -1.25267 6449 ft 247 kts 297°
2026-04-25 21:48 37.52621 -1.27132 6174 ft 240 kts 304°
2026-04-25 21:48 37.53540 -1.28860 5920 ft 233 kts 309°
2026-04-25 21:49 37.54542 -1.30431 5640 ft 227 kts 314°
2026-04-25 21:49 37.55595 -1.31874 5361 ft 221 kts 316°
2026-04-25 21:49 37.56641 -1.33258 5097 ft 214 kts 319°
2026-04-25 21:49 37.57715 -1.34517 4860 ft 208 kts 320°
2026-04-25 21:50 37.58771 -1.35734 4634 ft 203 kts 321°
2026-04-25 21:50 37.59915 -1.36657 4377 ft 191 kts 354°
2026-04-25 21:50 37.61103 -1.36318 4186 ft 172 kts 44°
2026-04-25 21:50 37.61625 -1.35585 4094 ft 170 kts 49°
2026-04-25 21:51 37.62806 -1.34199 3836 ft 176 kts 44°
2026-04-25 21:51 37.63707 -1.33207 3799 ft 171 kts 43°
2026-04-25 21:51 37.64604 -1.32226 3807 ft 170 kts 43°
2026-04-25 21:51 37.65490 -1.31266 3781 ft 167 kts 43°
2026-04-25 21:52 37.66377 -1.30309 3812 ft 169 kts 43°
2026-04-25 21:52 37.67274 -1.29346 3795 ft 169 kts 43°
2026-04-25 21:52 37.68152 -1.28403 3793 ft 167 kts 43°
2026-04-25 21:52 37.69004 -1.27436 3642 ft 164 kts 47°
2026-04-25 21:53 37.69790 -1.26377 3512 ft 167 kts 49°
2026-04-25 21:53 37.70584 -1.25282 3417 ft 171 kts 49°
2026-04-25 21:53 37.71361 -1.24192 3247 ft 162 kts 49°
2026-04-25 21:53 37.72083 -1.23155 3103 ft 154 kts 50°
2026-04-25 21:54 37.72776 -1.22130 2946 ft 156 kts 50°
2026-04-25 21:54 37.73520 -1.21097 2659 ft 160 kts 47°
2026-04-25 21:54 37.74303 -1.20107 2306 ft 159 kts 44°
2026-04-25 21:54 37.75099 -1.19136 2051 ft 154 kts 44°
2026-04-25 21:55 37.75830 -1.18195 1761 ft 149 kts 45°
2026-04-25 21:55 37.76549 -1.17253 1515 ft 149 kts 44°
2026-04-25 21:55 37.77277 -1.16350 1300 ft 145 kts 43°
2026-04-25 21:55 37.77992 -1.15444 1077 ft 145 kts 44°
2026-04-25 21:56 37.78701 -1.14540 872 ft 144 kts 44°
2026-04-25 21:56 37.79164 -1.13946 754 ft 142 kts 44°
2026-04-25 21:56 37.80074 -1.12780 643 ft 128 kts 45°
2026-04-25 21:56 37.80550 -1.12165 647 ft 67 kts 46°
2026-04-25 21:57 37.80860 -1.11769 642 ft 59 kts 45°
2026-04-25 21:57 37.81116 -1.11440 648 ft 43 kts 45°
2026-04-25 21:57 37.81249 -1.11296 648 ft 16 kts 355°
2026-04-25 21:57 37.81330 -1.11379 649 ft 15 kts 315°
2026-04-25 21:58 37.81317 -1.11490 650 ft 14 kts 227°
2026-04-25 21:58 37.81242 -1.11588 652 ft 19 kts 225°
2026-04-25 21:58 37.81131 -1.11729 649 ft 25 kts 226°
2026-04-25 21:58 37.81014 -1.11880 649 ft 24 kts 225°
2026-04-25 21:59 37.80890 -1.12040 646 ft 27 kts 225°
2026-04-25 21:59 37.80753 -1.12217 647 ft 27 kts 225°
2026-04-25 21:59 37.80627 -1.12378 649 ft 25 kts 225°
2026-04-25 22:00 37.80407 -1.12662 648 ft 16 kts 226°
2026-04-25 22:00 37.80424 -1.12757 646 ft 13 kts 319°
2026-04-25 22:00 37.80454 -1.12849 646 ft 12 kts 241°
2026-04-25 22:00 37.80397 -1.12928 646 ft 12 kts 225°
2026-04-25 22:01 37.80338 -1.13003 648 ft 12 kts 225°
2026-04-25 22:01 37.80309 -1.13063 647 ft 7 kts 289°
2026-04-25 22:01 37.80342 -1.13108 648 ft 6 kts 316°
2026-04-25 22:01 37.80351 -1.13119 646 ft 0 kts 316°